Tracking 18987 objects as of 25-Feb-2018
HD Live streaming from Space Station
objects crossing your sky now

COSMOS 1459

Track COSMOS 1459 now!
10-day predictions
COSMOS 1459 is classified as:


NORAD ID: 14057
Int'l Code: 1983-042A
Perigee: 946.4 km
Apogee: 1,020.3 km
Inclination: 83.0 °
Period: 104.6 minutes
Semi major axis: 7354 km
RCS: 2.2747 m2 (large)
Launch date: May 6, 1983
Source: Commonwealth of Independent States (former USSR) (CIS)
Launch site: PLESETSK MISSILE AND SPACE COMPLEX (PKMTR)
aabbcc
Your satellite tracking list
Your tracking list is empty




NASA's NSSDC Master Catalog

Two Line Element Set (TLE):
1 14057U 83042A   18055.91010496 +.00000030 +00000-0 +15020-4 0  9998
2 14057 082.9696 264.2032 0050190 035.2936 325.1527 13.76533916748256
Source of the keplerian elements: AFSPC